DLH1086 EDDF-LFML

Flight info

Callsign DLH1086
Flight time 1h 11m
Altitude 35000
Route ANEKI2L/18 ANEKI Y163 HERBI Y164 MOPAN DCT LUTIX/N0436F370 DCT BENOT DCT NEMOS DCT GVA DCT INCUS DCT BALSI
Aircraft A20N/M-SDE2E3FGHIRWXY/LB1

Departure

Time 2026-04-14 14:27
Airport Frankfurt Main Airport (EDDF)

Arrival

Time 2026-04-14 15:39
Airport Marseille Provence Airport (LFML)
Time Latitude Longitude Altitude Speed Heading
2026-04-14 14:00 50.04416 8.56277 352 ft 0 kts 164°
2026-04-14 14:13 50.04423 8.56274 347 ft 3 kts 164°
2026-04-14 14:13 50.04442 8.56266 356 ft 3 kts 165°
2026-04-14 14:13 50.04462 8.56259 354 ft 3 kts 171°
2026-04-14 14:14 50.04474 8.56257 351 ft 1 kts 188°
2026-04-14 14:14 50.04480 8.56259 352 ft 1 kts 216°
2026-04-14 14:14 50.04485 8.56264 352 ft 1 kts 234°
2026-04-14 14:14 50.04488 8.56271 357 ft 1 kts 243°
2026-04-14 14:15 50.04490 8.56278 357 ft 1 kts 248°
2026-04-14 14:15 50.04492 8.56286 355 ft 1 kts 249°
2026-04-14 14:15 50.04493 8.56289 355 ft 0 kts 249°
2026-04-14 14:17 50.04483 8.56249 357 ft 9 kts 249°
2026-04-14 14:18 50.04453 8.56121 350 ft 15 kts 250°
2026-04-14 14:18 50.04405 8.56033 349 ft 12 kts 189°
2026-04-14 14:18 50.04317 8.56070 351 ft 13 kts 164°
2026-04-14 14:18 50.04251 8.55991 353 ft 15 kts 250°
2026-04-14 14:19 50.04213 8.55825 349 ft 17 kts 250°
2026-04-14 14:19 50.04168 8.55641 355 ft 19 kts 249°
2026-04-14 14:19 50.04118 8.55432 354 ft 21 kts 248°
2026-04-14 14:19 50.04064 8.55206 352 ft 23 kts 250°
2026-04-14 14:20 50.04008 8.54974 356 ft 19 kts 249°
2026-04-14 14:20 50.03960 8.54770 350 ft 21 kts 250°
2026-04-14 14:20 50.03906 8.54548 355 ft 23 kts 250°
2026-04-14 14:20 50.03855 8.54358 355 ft 15 kts 236°
2026-04-14 14:21 50.03795 8.54205 347 ft 18 kts 251°
2026-04-14 14:21 50.03752 8.54013 347 ft 20 kts 248°
2026-04-14 14:21 50.03700 8.53803 349 ft 22 kts 250°
2026-04-14 14:21 50.03643 8.53574 354 ft 24 kts 247°
2026-04-14 14:22 50.03591 8.53361 353 ft 21 kts 250°
2026-04-14 14:22 50.03542 8.53156 351 ft 20 kts 249°
2026-04-14 14:22 50.03497 8.52968 350 ft 18 kts 250°
2026-04-14 14:22 50.03469 8.52856 354 ft 11 kts 245°
2026-04-14 14:23 50.03438 8.52749 352 ft 11 kts 250°
2026-04-14 14:23 50.03402 8.52633 353 ft 13 kts 229°
2026-04-14 14:23 50.03341 8.52593 346 ft 0 kts 179°
2026-04-14 14:26 50.03139 8.52596 352 ft 65 kts 179°
2026-04-14 14:27 50.02470 8.52603 347 ft 127 kts 179°
2026-04-14 14:27 50.01425 8.52617 421 ft 166 kts 179°
2026-04-14 14:27 50.00213 8.52628 808 ft 181 kts 180°
2026-04-14 14:27 49.98921 8.52612 1411 ft 190 kts 181°
2026-04-14 14:28 49.97593 8.52619 2124 ft 188 kts 177°
2026-04-14 14:28 49.96243 8.52771 2560 ft 204 kts 174°
2026-04-14 14:28 49.94764 8.52964 2938 ft 223 kts 175°
2026-04-14 14:28 49.93157 8.53136 3514 ft 237 kts 176°
2026-04-14 14:29 49.91505 8.53275 4518 ft 239 kts 176°
2026-04-14 14:29 49.89832 8.53394 5490 ft 242 kts 177°
2026-04-14 14:29 49.88126 8.53503 6397 ft 248 kts 176°
2026-04-14 14:29 49.86398 8.53612 6934 ft 253 kts 176°
2026-04-14 14:30 49.84626 8.53724 7123 ft 251 kts 176°
2026-04-14 14:30 49.82878 8.53836 7179 ft 252 kts 176°
2026-04-14 14:30 49.81128 8.53950 7195 ft 253 kts 176°
2026-04-14 14:30 49.79357 8.54066 7498 ft 256 kts 176°
2026-04-14 14:31 49.77606 8.54088 8360 ft 254 kts 184°
2026-04-14 14:31 49.75823 8.53838 9196 ft 264 kts 185°
2026-04-14 14:31 49.73929 8.53583 9827 ft 279 kts 185°
2026-04-14 14:31 49.71977 8.53326 10638 ft 286 kts 186°
2026-04-14 14:32 49.69907 8.53053 10982 ft 310 kts 186°
2026-04-14 14:32 49.67680 8.52759 11324 ft 331 kts 186°
2026-04-14 14:32 49.65398 8.52460 12054 ft 337 kts 186°
2026-04-14 14:32 49.63040 8.52151 12859 ft 342 kts 186°
2026-04-14 14:33 49.60651 8.51838 13659 ft 347 kts 186°
2026-04-14 14:33 49.58223 8.51519 14405 ft 352 kts 186°
2026-04-14 14:33 49.55773 8.51197 15132 ft 355 kts 186°
2026-04-14 14:33 49.53293 8.50871 15846 ft 360 kts 186°
2026-04-14 14:34 49.48256 8.50210 17257 ft 367 kts 186°
2026-04-14 14:34 49.45683 8.49873 17947 ft 372 kts 186°
2026-04-14 14:34 49.43128 8.49538 18609 ft 376 kts 186°
2026-04-14 14:35 49.40515 8.49197 19228 ft 378 kts 186°
2026-04-14 14:35 49.37879 8.48853 19867 ft 381 kts 186°
2026-04-14 14:35 49.35226 8.48507 20463 ft 384 kts 186°
2026-04-14 14:35 49.32552 8.48159 21090 ft 387 kts 186°
2026-04-14 14:36 49.29860 8.47808 21689 ft 390 kts 186°
2026-04-14 14:36 49.27147 8.47456 22289 ft 393 kts 186°
2026-04-14 14:36 49.24413 8.47101 22903 ft 395 kts 186°
2026-04-14 14:36 49.21663 8.46743 23491 ft 398 kts 186°
2026-04-14 14:37 49.18893 8.46383 24026 ft 401 kts 186°
2026-04-14 14:37 49.16098 8.46019 24494 ft 404 kts 186°
2026-04-14 14:37 49.13277 8.45653 24943 ft 408 kts 186°
2026-04-14 14:37 49.10440 8.45285 25372 ft 412 kts 186°
2026-04-14 14:38 49.07573 8.44909 25805 ft 415 kts 187°
2026-04-14 14:38 49.04716 8.44217 26219 ft 417 kts 194°
2026-04-14 14:38 49.01967 8.43247 26613 ft 421 kts 194°
2026-04-14 14:38 48.99101 8.42235 27017 ft 424 kts 194°
2026-04-14 14:39 48.96213 8.41221 27394 ft 428 kts 194°
2026-04-14 14:39 48.93300 8.40205 27785 ft 431 kts 194°
2026-04-14 14:39 48.90364 8.39184 28155 ft 435 kts 194°
2026-04-14 14:39 48.87403 8.38157 28510 ft 438 kts 194°
2026-04-14 14:40 48.84415 8.37122 28867 ft 441 kts 194°
2026-04-14 14:40 48.81407 8.36081 29202 ft 445 kts 194°
2026-04-14 14:40 48.78380 8.35035 29522 ft 448 kts 194°
2026-04-14 14:40 48.75336 8.33949 29851 ft 451 kts 194°
2026-04-14 14:41 48.72280 8.32825 30179 ft 454 kts 194°
2026-04-14 14:41 48.69194 8.31685 30480 ft 457 kts 194°
2026-04-14 14:41 48.66100 8.30548 30759 ft 459 kts 194°
2026-04-14 14:41 48.62982 8.29407 31047 ft 462 kts 194°
2026-04-14 14:42 48.59849 8.28266 31339 ft 464 kts 194°
2026-04-14 14:42 48.56706 8.27125 31694 ft 465 kts 194°
2026-04-14 14:42 48.53598 8.25998 32062 ft 465 kts 194°
2026-04-14 14:42 48.50456 8.24861 32435 ft 465 kts 194°
2026-04-14 14:43 48.47312 8.23722 32791 ft 465 kts 194°
2026-04-14 14:43 48.44167 8.22574 33146 ft 465 kts 194°
2026-04-14 14:43 48.41025 8.21424 33501 ft 465 kts 194°
2026-04-14 14:43 48.37882 8.20275 33839 ft 465 kts 194°
2026-04-14 14:44 48.34738 8.19128 34162 ft 465 kts 194°
2026-04-14 14:44 48.31595 8.17983 34439 ft 465 kts 194°
2026-04-14 14:44 48.28448 8.16839 34703 ft 465 kts 194°
2026-04-14 14:44 48.25327 8.15545 34968 ft 464 kts 200°
2026-04-14 14:45 48.22327 8.13787 35154 ft 463 kts 206°
2026-04-14 14:45 48.16558 8.09502 35204 ft 462 kts 208°
2026-04-14 14:46 48.10801 8.05223 35200 ft 462 kts 207°
2026-04-14 14:46 48.05997 8.01680 35199 ft 463 kts 207°
2026-04-14 14:47 48.00222 7.97434 35198 ft 463 kts 207°
2026-04-14 14:47 47.94436 7.93192 35198 ft 464 kts 207°
2026-04-14 14:48 47.88636 7.88950 35192 ft 464 kts 207°
2026-04-14 14:48 47.82832 7.84715 35193 ft 465 kts 207°
2026-04-14 14:49 47.77020 7.80485 35196 ft 465 kts 207°
2026-04-14 14:49 47.71203 7.76262 35191 ft 465 kts 207°
2026-04-14 14:50 47.65381 7.72046 35189 ft 465 kts 207°
2026-04-14 14:50 47.59554 7.67837 35189 ft 466 kts 207°
2026-04-14 14:51 47.53765 7.63665 35190 ft 466 kts 207°
2026-04-14 14:51 47.47927 7.59469 35183 ft 466 kts 207°
2026-04-14 14:52 47.42082 7.55279 35183 ft 466 kts 207°
2026-04-14 14:52 47.36235 7.51097 35182 ft 466 kts 207°
2026-04-14 14:53 47.30387 7.46924 35185 ft 467 kts 207°
2026-04-14 14:53 47.24538 7.42762 35187 ft 467 kts 207°
2026-04-14 14:54 47.18818 7.38384 35184 ft 465 kts 215°
2026-04-14 14:54 47.13927 7.32268 35176 ft 461 kts 230°
2026-04-14 14:55 47.09920 7.24947 35168 ft 460 kts 234°
2026-04-14 14:55 47.05935 7.17590 35147 ft 461 kts 234°
2026-04-14 14:56 46.99942 7.06608 35148 ft 462 kts 234°
2026-04-14 14:56 46.95929 6.99281 35146 ft 463 kts 234°
2026-04-14 14:57 46.91628 6.92237 35144 ft 467 kts 224°
2026-04-14 14:57 46.86380 6.86598 35142 ft 472 kts 211°
2026-04-14 14:58 46.80650 6.81876 35148 ft 473 kts 211°
2026-04-14 14:58 46.74912 6.77121 35160 ft 474 kts 211°
2026-04-14 14:59 46.69168 6.72364 35167 ft 475 kts 211°
2026-04-14 14:59 46.63398 6.67599 35163 ft 477 kts 211°
2026-04-14 15:00 46.57629 6.62848 35125 ft 475 kts 211°
2026-04-14 15:00 46.51909 6.58147 35144 ft 475 kts 211°
2026-04-14 15:01 46.46161 6.53436 35155 ft 476 kts 211°
2026-04-14 15:01 46.40365 6.48696 35154 ft 477 kts 211°
2026-04-14 15:02 46.34580 6.43978 35135 ft 478 kts 211°
2026-04-14 15:02 46.28777 6.39256 35155 ft 479 kts 211°
2026-04-14 15:03 46.22953 6.34529 35161 ft 480 kts 211°
2026-04-14 15:03 46.17121 6.29807 35161 ft 481 kts 211°
2026-04-14 15:04 46.11275 6.25086 35161 ft 482 kts 211°
2026-04-14 15:04 46.05422 6.20370 35142 ft 482 kts 211°
2026-04-14 15:05 45.99557 6.15656 35143 ft 482 kts 211°
2026-04-14 15:05 45.93696 6.10957 35142 ft 482 kts 211°
2026-04-14 15:06 45.87810 6.06458 35139 ft 484 kts 205°
2026-04-14 15:06 45.81402 6.03489 35132 ft 486 kts 192°
2026-04-14 15:07 45.74717 6.01989 35133 ft 486 kts 189°
2026-04-14 15:07 45.68029 6.00532 35132 ft 486 kts 189°
2026-04-14 15:08 45.61336 5.99061 35131 ft 486 kts 189°
2026-04-14 15:08 45.54661 5.97597 35126 ft 485 kts 189°
2026-04-14 15:09 45.48216 5.94976 35126 ft 481 kts 209°
2026-04-14 15:09 45.45439 5.92508 35123 ft 477 kts 221°
2026-04-14 15:09 45.42999 5.89338 35126 ft 474 kts 229°
2026-04-14 15:10 45.38380 5.82671 35115 ft 475 kts 229°
2026-04-14 15:10 45.33719 5.75993 35124 ft 476 kts 229°
2026-04-14 15:11 45.29040 5.69320 35065 ft 476 kts 229°
2026-04-14 15:11 45.26698 5.65987 34773 ft 477 kts 229°
2026-04-14 15:11 45.24341 5.62637 34422 ft 481 kts 229°
2026-04-14 15:12 45.21973 5.59273 34064 ft 483 kts 229°
2026-04-14 15:12 45.19597 5.55904 33642 ft 482 kts 229°
2026-04-14 15:12 45.17224 5.52542 33239 ft 481 kts 228°
2026-04-14 15:12 45.14880 5.49226 32847 ft 482 kts 228°
2026-04-14 15:13 45.12506 5.45870 32451 ft 482 kts 228°
2026-04-14 15:13 45.10131 5.42517 32062 ft 482 kts 228°
2026-04-14 15:13 45.07756 5.39170 31678 ft 482 kts 228°
2026-04-14 15:13 45.05375 5.35819 31298 ft 482 kts 228°
2026-04-14 15:14 45.02998 5.32477 30934 ft 482 kts 228°
2026-04-14 15:14 45.00620 5.29138 30562 ft 481 kts 227°
2026-04-14 15:14 44.98249 5.25814 30106 ft 479 kts 227°
2026-04-14 15:14 44.95896 5.22519 29588 ft 474 kts 227°
2026-04-14 15:15 44.93568 5.19265 29107 ft 468 kts 227°
2026-04-14 15:15 44.91266 5.16049 28699 ft 463 kts 227°
2026-04-14 15:15 44.88981 5.12860 28270 ft 462 kts 227°
2026-04-14 15:15 44.86700 5.09679 27871 ft 461 kts 227°
2026-04-14 15:16 44.84424 5.06510 27487 ft 459 kts 227°
2026-04-14 15:16 44.82160 5.03362 27121 ft 456 kts 227°
2026-04-14 15:16 44.79909 5.00237 26759 ft 453 kts 227°
2026-04-14 15:16 44.77673 4.97134 26403 ft 450 kts 227°
2026-04-14 15:17 44.75356 4.94173 26038 ft 451 kts 218°
2026-04-14 15:17 44.72678 4.91984 25693 ft 452 kts 204°
2026-04-14 15:17 44.69674 4.90709 25341 ft 452 kts 189°
2026-04-14 15:17 44.66557 4.90481 25133 ft 448 kts 174°
2026-04-14 15:18 44.63493 4.91218 25034 ft 448 kts 165°
2026-04-14 15:18 44.60468 4.92284 24727 ft 448 kts 164°
2026-04-14 15:18 44.57450 4.93297 24416 ft 444 kts 166°
2026-04-14 15:18 44.54440 4.94179 24123 ft 440 kts 168°
2026-04-14 15:19 44.51435 4.94961 23839 ft 437 kts 169°
2026-04-14 15:19 44.48458 4.95682 23550 ft 432 kts 169°
2026-04-14 15:19 44.45506 4.96372 23216 ft 428 kts 169°
2026-04-14 15:19 44.42571 4.97050 23052 ft 425 kts 170°
2026-04-14 15:20 44.39639 4.97727 23032 ft 428 kts 170°
2026-04-14 15:20 44.36703 4.98405 23029 ft 427 kts 170°
2026-04-14 15:20 44.33769 4.99085 23027 ft 427 kts 170°
2026-04-14 15:20 44.30878 4.99754 23023 ft 426 kts 170°
2026-04-14 15:21 44.27950 5.00431 23015 ft 426 kts 170°
2026-04-14 15:21 44.25033 5.01105 23010 ft 425 kts 170°
2026-04-14 15:21 44.22107 5.01780 23002 ft 425 kts 170°
2026-04-14 15:21 44.19201 5.02450 22801 ft 421 kts 170°
2026-04-14 15:22 44.16331 5.03112 22350 ft 418 kts 170°
2026-04-14 15:22 44.13473 5.03769 21866 ft 412 kts 170°
2026-04-14 15:22 44.10651 5.04417 21293 ft 409 kts 170°
2026-04-14 15:22 44.07858 5.05058 20773 ft 405 kts 170°
2026-04-14 15:23 44.05094 5.05692 20224 ft 401 kts 169°
2026-04-14 15:23 44.02349 5.06320 19680 ft 398 kts 169°
2026-04-14 15:23 43.99625 5.06944 19148 ft 395 kts 169°
2026-04-14 15:23 43.96928 5.07563 18647 ft 391 kts 169°
2026-04-14 15:24 43.94242 5.08178 18069 ft 389 kts 169°
2026-04-14 15:24 43.91586 5.08784 17488 ft 387 kts 169°
2026-04-14 15:24 43.88940 5.09413 16903 ft 384 kts 166°
2026-04-14 15:24 43.86416 5.10407 16350 ft 380 kts 159°
2026-04-14 15:25 43.84564 5.11299 15952 ft 378 kts 159°
2026-04-14 15:25 43.81998 5.12525 15398 ft 376 kts 159°
2026-04-14 15:25 43.79537 5.13696 15062 ft 370 kts 159°
2026-04-14 15:25 43.77078 5.14863 14933 ft 375 kts 159°
2026-04-14 15:26 43.74639 5.16018 14727 ft 365 kts 159°
2026-04-14 15:26 43.72293 5.17124 14554 ft 347 kts 159°
2026-04-14 15:26 43.70065 5.18170 14389 ft 329 kts 159°
2026-04-14 15:26 43.67914 5.19148 14106 ft 323 kts 160°
2026-04-14 15:27 43.65782 5.20100 13733 ft 322 kts 160°
2026-04-14 15:27 43.63661 5.21046 13352 ft 319 kts 160°
2026-04-14 15:27 43.61574 5.21981 12894 ft 319 kts 160°
2026-04-14 15:27 43.59463 5.22877 12569 ft 315 kts 165°
2026-04-14 15:28 43.57293 5.23268 12182 ft 315 kts 178°
2026-04-14 15:28 43.55116 5.23074 11828 ft 313 kts 185°
2026-04-14 15:28 43.52957 5.22782 11430 ft 311 kts 185°
2026-04-14 15:28 43.50791 5.22505 10927 ft 312 kts 185°
2026-04-14 15:29 43.48647 5.22237 10440 ft 307 kts 185°
2026-04-14 15:29 43.46533 5.21975 9956 ft 302 kts 185°
2026-04-14 15:29 43.44456 5.21718 9445 ft 298 kts 185°
2026-04-14 15:29 43.42432 5.21472 8982 ft 292 kts 185°
2026-04-14 15:30 43.40441 5.21244 8812 ft 275 kts 184°
2026-04-14 15:30 43.38564 5.21035 8418 ft 269 kts 184°
2026-04-14 15:30 43.36708 5.20828 7950 ft 266 kts 185°
2026-04-14 15:30 43.34893 5.20622 7485 ft 264 kts 185°
2026-04-14 15:31 43.33067 5.20418 7019 ft 263 kts 185°
2026-04-14 15:31 43.31273 5.20215 6585 ft 260 kts 185°
2026-04-14 15:31 43.29493 5.20028 6215 ft 253 kts 181°
2026-04-14 15:31 43.27803 5.20458 6012 ft 245 kts 156°
2026-04-14 15:32 43.26389 5.21726 5614 ft 244 kts 141°
2026-04-14 15:32 43.25052 5.23173 5205 ft 244 kts 141°
2026-04-14 15:32 43.23744 5.24645 4838 ft 243 kts 132°
2026-04-14 15:32 43.22935 5.26633 4411 ft 240 kts 101°
2026-04-14 15:33 43.22830 5.28906 4045 ft 238 kts 88°
2026-04-14 15:33 43.23081 5.31080 3875 ft 224 kts 62°
2026-04-14 15:33 43.24045 5.32619 3742 ft 209 kts 28°
2026-04-14 15:33 43.24931 5.33075 3556 ft 205 kts
2026-04-14 15:34 43.26344 5.33050 3322 ft 200 kts 355°
2026-04-14 15:34 43.27678 5.32948 3249 ft 185 kts 355°
2026-04-14 15:34 43.28971 5.32870 2828 ft 186 kts 356°
2026-04-14 15:34 43.30246 5.32816 2506 ft 181 kts 356°
2026-04-14 15:35 43.31492 5.32781 2265 ft 173 kts 356°
2026-04-14 15:35 43.32649 5.32757 2070 ft 163 kts 356°
2026-04-14 15:35 43.33785 5.32734 2001 ft 166 kts 356°
2026-04-14 15:35 43.34923 5.32645 1997 ft 160 kts 348°
2026-04-14 15:36 43.35925 5.32129 2019 ft 152 kts 331°
2026-04-14 15:36 43.36743 5.31298 1986 ft 133 kts 321°
2026-04-14 15:36 43.37401 5.30445 2006 ft 133 kts 319°
2026-04-14 15:36 43.38037 5.29537 1993 ft 127 kts 316°
2026-04-14 15:37 43.38660 5.28651 1812 ft 128 kts 317°
2026-04-14 15:37 43.39246 5.27811 1594 ft 116 kts 317°
2026-04-14 15:37 43.39795 5.27028 1397 ft 114 kts 317°
2026-04-14 15:37 43.40340 5.26254 1195 ft 113 kts 317°
2026-04-14 15:38 43.40891 5.25463 965 ft 115 kts 317°
2026-04-14 15:38 43.41457 5.24645 731 ft 119 kts 318°
2026-04-14 15:38 43.42026 5.23841 517 ft 117 kts 317°
2026-04-14 15:38 43.42591 5.23035 300 ft 118 kts 318°
2026-04-14 15:39 43.43144 5.22247 100 ft 110 kts 316°
2026-04-14 15:39 43.43647 5.21539 41 ft 91 kts 314°
2026-04-14 15:39 43.44017 5.21010 30 ft 49 kts 313°
2026-04-14 15:39 43.44172 5.20792 26 ft 22 kts 315°
2026-04-14 15:40 43.44258 5.20764 25 ft 14 kts 13°
2026-04-14 15:40 43.44311 5.20849 20 ft 2 kts 82°
2026-04-14 15:41 43.44312 5.20870 20 ft 7 kts 92°
2026-04-14 15:41 43.44277 5.20963 20 ft 14 kts 122°
2026-04-14 15:42 43.44212 5.21072 21 ft 5 kts 134°
2026-04-14 15:42 43.44186 5.21108 26 ft 8 kts 135°
2026-04-14 15:42 43.44123 5.21196 24 ft 18 kts 134°
2026-04-14 15:42 43.44026 5.21335 26 ft 21 kts 134°
2026-04-14 15:43 43.43947 5.21448 28 ft 15 kts 133°
2026-04-14 15:43 43.43931 5.21564 32 ft 9 kts 62°
2026-04-14 15:43 43.43958 5.21606 39 ft 4 kts 45°
2026-04-14 15:43 43.43979 5.21635 40 ft 6 kts 44°
2026-04-14 15:44 43.44025 5.21695 39 ft 13 kts 43°
2026-04-14 15:44 43.44087 5.21776 36 ft 7 kts 44°
2026-04-14 15:44 43.44112 5.21852 37 ft 11 kts 106°
2026-04-14 15:44 43.44055 5.21943 39 ft 14 kts 134°
2026-04-14 15:45 43.44006 5.22013 42 ft 7 kts 134°
2026-04-14 15:45 43.44006 5.22073 41 ft 5 kts 61°
2026-04-14 15:45 43.44022 5.22113 41 ft 0 kts 62°
2026-04-14 15:45 43.44023 5.22116 42 ft 0 kts 61°